Regional Weather Roundup
Issued by NWS

Home | Current Version | Previous Version | Text Only | Print | Product List | Glossary On
Versions: 1 2 3 4 5 6 7 8 9 10 11 12 13 14 15 16 17 18 19 20 21 22 23 24 25 26 27 28 29 30 31 32 33 34 35 36 37 38 39 40 41 42 43 44 45 46 47 48 49 50
000
ASUS43 KLMK 211110
RWRKY
KENTUCKY REGIONAL WEATHER ROUNDUP
NATIONAL WEATHER SERVICE LOUISVILLE KY
700 AM EDT MON MAY 21 2018

NOTE "FAIR" INDICATES FEW OR NO CLOUDS BELOW 12,000 FEET
WITH NO SIGNIFICANT WEATHER AND/OR OBSTRUCTIONS TO VISIBILITY.

KYZ001>023-026-027-061>063-070>075-211200-
WESTERN AND SOUTH CENTRAL KENTUCKY

CITY           SKY/WX    TMP DP  RH WIND       PRES   REMARKS
PADUCAH        MOCLDY    68  66  93 CALM      30.08S
HENDERSON      NOT AVBL
OWENSBORO      FAIR      68  66  93 SE6       30.11S
HOPKINSVILLE   MOCLDY    68  66  94 NW7       30.11R
BOWLING GREEN  FAIR      67  67 100 CALM      30.10R
GLASGOW        FAIR      65  64  94 CALM      30.11R
$$

KYZ024-025-028>034-038-045-046-053-211200-
NORTH CENTRAL KENTUCKY

CITY           SKY/WX    TMP DP  RH WIND       PRES   REMARKS
LOUISVILLE/SDF MOCLDY    70  65  84 CALM      30.10R
LOUISVILLE/LOU FAIR      69  67  93 CALM      30.11R
FORT KNOX      MOCLDY    64  64 100 S3        30.12R
$$

KYZ035>037-039>044-047>052-055>060-089>105-211200-
NORTHEAST KENTUCKY

CITY           SKY/WX    TMP DP  RH WIND       PRES   REMARKS
LEXINGTON      FAIR      64  62  93 S5        30.13R
COVINGTON      CLOUDY    67  64  90 NE8       30.11R
FRANKFORT      FAIR      66  63  90 CALM      30.10S
$$

KYZ054-064>069-076>088-106>120-211200-
SOUTHEAST KENTUCKY

CITY           SKY/WX    TMP DP  RH WIND       PRES   REMARKS
JACKSON        FAIR      66  64  93 CALM      30.15R
LONDON         FAIR      63  63 100 CALM      30.15R FOG
SOMERSET       FAIR      63  63 100 MISG      30.15R
MIDDLESBORO    CLOUDY    63  63 100 CALM      30.17S FOG
MONTICELLO     FAIR      63  63 100 NW3       30.16R
$$




USA.gov is the U.S. government's official web portal to all federal, state and local government web resources and services.